Regional Weather Roundup
Issued by NWS Grand Forks, ND

Home | Current Version | Previous Version | Text Only | Print | Product List | Glossary Off
Versions: 1 2 3 4 5 6 7 8 9 10 11 12 13 14 15 16 17 18 19 20 21 22 23 24 25 26 27 28 29 30 31 32 33 34 35 36 37 38 39 40 41 42 43 44 45 46 47 48 49 50

000
ASUS43 KFGF 020010
RWRFGF
PRAIRIE TO PINES  WEATHER ROUNDUP
NATIONAL WEATHER SERVICE EASTERN NORTH DAKOTA/GRAND FORKS ND
700 PM CDT WED APR 01 2015

 **SATELLITE DATA USED TO AUGMENT SKY COVER AT AUTOMATED STATIONS**
 *****  WEATHER ACROSS EASTERN NORTH DAKOTA  *****

CITY           SKY/WX    TMP DP  RH WIND       PRES   REMARKS
GRAND FORKS    MOCLDY    56  41  57 W24G32    29.47R
6HR MIN TEMP:  56; 6HR MAX TEMP:  67;

GRAND FRKS AFB MOCLDY    54  40  59 W21G30    29.49R
GRAND FRKS NWS   N/A     54 N/A N/A W36         N/A
DEVILS LAKE    SUNNY     52  36  54 NW23G32   29.54R
6HR MIN TEMP:  50; 6HR MAX TEMP:  57;

FARGO          PTCLDY    63  37  38 NW16G24   29.51R
WAHPETON ARPT  PTCLDY    63  37  39 NW18      29.52R
$$

 ***** WEATHER ACROSS CENTRAL AND WESTERN NORTH DAKOTA  *****

CITY           SKY/WX    TMP DP  RH WIND       PRES   REMARKS
BISMARCK       MOSUNNY   58  24  27 NW22G31   29.67R
6HR MIN TEMP:  57; 6HR MAX TEMP:  64;

MINOT          MOSUNNY   54  21  27 W29G40    29.60R
6HR MIN TEMP:  52; 6HR MAX TEMP:  59; 6HR PCP: TRACE;

JAMESTOWN      PTSUNNY   58  33  39 NW22G37   29.56R
6HR MIN TEMP:  58; 6HR MAX TEMP:  64;

MINOT AFB      MOSUNNY   54  26  34 NW25      29.58R
GARRISON         N/A     55  24  30 NW25G38   29.63R
WILLISTON      PTSUNNY   51  24  34 W20G28    29.66F
6HR MIN TEMP:  50; 6HR MAX TEMP:  57;

DICKINSON      MOSUNNY   52  20  28 NW26G37   29.69R
6HR MIN TEMP:  51; 6HR MAX TEMP:  58;

HETTINGER      SUNNY     54  12  18 W21G35    29.73R
6HR MIN TEMP:  53; 6HR MAX TEMP:  59;

$$

 *****  OTHER AIRPORT OBSERVATIONS IN OUR AREA  *****

CITY           SKY/WX    TMP DP  RH WIND       PRES   REMARKS
WALHALLA         N/A     50  41  71 NW21G31   29.49R
GRAFTON AIRPOR NOT AVBL
VALLEY CITY AR FAIR      59  37  44 NW20G29   29.55R
CANDO          NOT AVBL
CAVALIER APRT  FAIR      54  41  62 W25G38    29.47R
GWINNER        CLEAR     64  32  29 NW22G30     N/A
SHEYENNE NWR     N/A     65  35  33 NW14      29.95S
ROLLA          FAIR      48  36  61 W21G29    29.53R
 ***** THE ABOVE OBSERVATIONS ARE NON NWS ARE NOT QUALITY
       CONTROLLED AND MAY MIS-REPORT RAIN FOR SNOW...
$$

  *****  WEATHER ACROSS NORTHERN MINNESOTA  *****

CITY           SKY/WX    TMP DP  RH WIND       PRES   REMARKS
FLAG ISLAND    MOCLDY    57  36  44 CALM      29.32R
WARROAD        MOCLDY    57  45  62 W16G24    29.35R
ROSEAU         MOCLDY    55  45  67 W10G17    29.37R
HALLOCK        CLOUDY    55  43  62 W9        29.43R
THF RVR FALLS  PTCLDY    55  39  54 NW17G26   29.45R
6HR MIN TEMP:  55; 6HR MAX TEMP:  68;

BAUDETTE       CLOUDY    61  43  51 SW5       29.33R
6HR MIN TEMP:  58; 6HR MAX TEMP:  65;

WASKISH        CLOUDY    63  39  42 SW15      29.35R
CROOKSTON      MOCLDY    61  45  55 NW24      29.47R
STEPHEN NDAWN    N/A     57  45  62 NW9         N/A
GREENBUSH NDAW   N/A     54  43  66 W14         N/A
$$
  *****  WEATHER ACROSS CENTRAL AND WEST MINNESOTA  *****

CITY           SKY/WX    TMP DP  RH WIND       PRES   REMARKS
FOSSTON        PTCLDY    57  41  54 W23G29    29.45R
BEMIDJI        MOCLDY    62  40  44 W22G29    29.40R
PARK RAPIDS    MOCLDY    64  36  35 W21       29.42R
6HR MIN TEMP:  64; 6HR MAX TEMP:  73;

ELBOW LAKE     FAIR      62  42  48 NW16      29.52R
WADENA         CLOUDY    63  39  42 W22G29    29.45R
DETROIT LAKES  MOCLDY    61  41  48 NW22G30   29.51R
MOORHEAD       PTCLDY    63  39  42 NW16      29.52R
FERGUS FALLS   MOCLDY    64  37  36 NW30      29.52R
MORRIS MN      CLOUDY    64  43  45 NW16      29.50S
STAPLES        CLOUDY    64  36  34 W18       29.43S
$$
  *****  WEATHER ELSEWHERE ACROSS MINNESOTA  *****

CITY           SKY/WX    TMP DP  RH WIND       PRES   REMARKS
DULUTH         MOCLDY    39  32  76 SE12      29.45F
6HR MIN TEMP:  39; 6HR MAX TEMP:  46;

INTRNTL FALLS  CLOUDY    59  36  42 S7        29.35F
6HR MIN TEMP:  56; 6HR MAX TEMP:  65;

ELY            CLOUDY    46  30  53 SE6       29.44F
CLOQUET        MOCLDY    39  32  75 E8        29.45F
WHEATON        MOCLDY    61  39  44 W18       29.56R
BRAINERD       CLOUDY    66  40  38 W14G20    29.41R
6HR MIN TEMP:  64; 6HR MAX TEMP:  73;

HIBBING        NOT AVBL
ALEXANDRIA     CLOUDY    60  39  45 W15       29.50R
6HR MIN TEMP:  60; 6HR MAX TEMP:  72;

SAINT CLOUD    MOCLDY    66  53  63 SW7       29.43R
6HR MIN TEMP:  63; 6HR MAX TEMP:  76; 6HR PCP:  0.09;

MINNEAPOLIS    MOCLDY    77  38  24 S15       29.45S
6HR MIN TEMP:  74; 6HR MAX TEMP:  84;

$$

  *****  WEATHER ACROSS SOUTH DAKOTA  *****

CITY           SKY/WX    TMP DP  RH WIND       PRES   REMARKS
SIOUX FALLS    CLOUDY    68  39  34 N18       29.54R
6HR MIN TEMP:  68; 6HR MAX TEMP:  84;

BROOKINGS      CLOUDY    64  41  42 NW16      29.54F
WATERTOWN      MOCLDY    63  39  41 NW14      29.57R
6HR MIN TEMP:  62; 6HR MAX TEMP:  72;

HURON          MOCLDY    66  33  29 NW18G30   29.62R
6HR MIN TEMP:  65; 6HR MAX TEMP:  73; 6HR PCP: TRACE;

SISSETON         N/A     63  35  35 N18       29.54R
ABERDEEN       PTCLDY    64  27  24 NW17G29   29.61R
6HR MIN TEMP:  64; 6HR MAX TEMP:  72; 6HR PCP: TRACE;

MITCHELL       MOCLDY    66  39  37 NW23G31   29.61R HAZE
PIERRE         PTSUNNY   58  22  24 NW25      29.70R
6HR MIN TEMP:  58; 6HR MAX TEMP:  68;

MOBRIDGE       CLOUDY    60  27  28 NW24G30   29.66R
RAPID CITY     CLOUDY    54  18  24 NW30G37   29.79R
6HR MIN TEMP:  52; 6HR MAX TEMP:  59;

$$

  *****  SOME WEATHER IN NEARBY STATES *****

CITY           SKY/WX    TMP DP  RH WIND       PRES   REMARKS
GLASGOW MT     MOSUNNY   50  23  34 W20G28    29.70F
6HR MIN TEMP:  47; 6HR MAX TEMP:  53;

GREAT FALLS MT PTSUNNY   49   3  15 W29G37    29.82R
6HR MIN TEMP:  45; 6HR MAX TEMP:  51;

CHEYENNE WY    PTSUNNY   55  12  18 NW23G32   29.81R
6HR MIN TEMP:  55; 6HR MAX TEMP:  62; 6HR PCP: TRACE;

SCOTTSBLUFF NE PTSUNNY   53  30  41 N28G35    29.79R
6HR MIN TEMP:  53; 6HR MAX TEMP:  74; 6HR PCP: TRACE;

OMAHA NE       MOCLDY    81  48  31 S28G36    29.54F
6HR MIN TEMP:  79; 6HR MAX TEMP:  85;

DES MOINES IA  PTCLDY    77  46  33 S29G37    29.65F
6HR MIN TEMP:  77; 6HR MAX TEMP:  83;

DAVENPORT IA   CLEAR     72  32  23 S26G33    29.79S
6HR MIN TEMP:  72; 6HR MAX TEMP:  80;

CHICAGO IL     MOCLDY    68  37  32 S22G33    29.86S
6HR MIN TEMP:  67; 6HR MAX TEMP:  72;

EAU CLAIRE WI  PTCLDY    75  31  19 S16G39    29.54F
6HR MIN TEMP:  67; 6HR MAX TEMP:  80;

LA CROSSE WI   MOCLDY    76  32  20 S21G28    29.60F
6HR MIN TEMP:  71; 6HR MAX TEMP:  82;

$$

  *****  SOME NATIONAL WEATHER *****

CITY           SKY/WX    TMP DP  RH WIND       PRES   REMARKS
LA GUARDIA NY  CLEAR     48  18  30 NW13      30.15R
6HR MIN TEMP:  45; 6HR MAX TEMP:  51;

RALEIGH NC     PTCLDY    58  30  34 E7        30.17R
6HR MIN TEMP:  58; 6HR MAX TEMP:  66;

ATLANTA GA     MOCLDY    76  45  33 W5        30.04R
6HR MIN TEMP:  75; 6HR MAX TEMP:  79;

NEW ORLEANS LA CLOUDY    75  63  66 S10       30.02F
6HR MIN TEMP:  75; 6HR MAX TEMP:  81;

OKLAHOMA CITY  PTCLDY    76  60  57 S18G30    29.71F
6HR MIN TEMP:  76; 6HR MAX TEMP:  82;

ALBUQUERQUE NM MOSUNNY   74  22  14 W21G26    29.86F
6HR MIN TEMP:  70; 6HR MAX TEMP:  76;

SALT LAKE CITY PTSUNNY   51   0  12 NW12      30.04R
6HR MIN TEMP:  45; 6HR MAX TEMP:  53;

LOS ANGELES CA MOSUNNY   66  57  72 W14       29.92F
6HR MIN TEMP:  65; 6HR MAX TEMP:  68;




USA.gov is the U.S. government's official web portal to all federal, state and local government web resources and services.